Regional Weather Roundup
Issued by NWS Portland, ME

Home | Current Version | Previous Version | Text Only | Print | Product List | Glossary On
Versions: 1 2 3 4 5 6 7 8 9 10 11 12 13 14 15 16 17 18 19 20 21 22 23 24 25 26 27 28 29 30 31 32 33 34 35 36 37 38 39 40 41 42 43 44 45 46 47 48 49 50
000
ASUS41 KGYX 251810
RWRGYX
WEATHER ROUNDUP FOR MAINE AND NEW HAMPSHIRE
NATIONAL WEATHER SERVICE GRAY ME
100 PM EST SUN FEB 25 2018

MEZ002-005-006-010-012-015-018-020-021-024-026-027-029-251900-
MAINE

CITY           SKY/WX    TMP DP  RH WIND       PRES   REMARKS
PORTLAND       LGT SNOW  33  33 100 SE9       30.20F FOG
6HR MIN TEMP:  32; 6HR MAX TEMP:  35; 6HR PCP:  0.23;

SANFORD        LGT SNOW  34  32  92 SE8       30.17F FOG
BAR HARBOR     CLOUDY    34  24  67 SE12G17   30.26F
WISCASSET      LGT SNOW  33  32  96 E6        30.23F VSB 3/4
6HR MIN TEMP:  29; 6HR MAX TEMP:  33; 6HR PCP:  0.13;

ROCKLAND       LGT SNOW  33  30  88 SE14G20   30.23F FOG
FRYEBURG       SNOW      27  26  96 N6        30.18F VSB 1/4
6HR MIN TEMP:  26; 6HR MAX TEMP:  29; 6HR PCP:  0.23;

LEWISTONAUBURN SNOW      30  27  86 CALM      30.19F VSB 1/2
AUGUSTA        SNOW      28  26  92 E5        30.21F VSB 1/2
6HR MIN TEMP:  26; 6HR MAX TEMP:  30; 6HR PCP:  0.09;

WATERVILLE     SNOW      27  25  92 VRB3      30.16F VSB 1/2
BANGOR         CLOUDY    32  21  64 SE10      30.25F
6HR MIN TEMP:  24; 6HR MAX TEMP:  32;

GREENVILLE       N/A     20  10  65 SE14G22   30.11F WCI   7
6HR MIN TEMP:  15; 6HR MAX TEMP:  20;

MILLINOCKET    CLOUDY    25  12  58 E9        30.26F
6HR MIN TEMP:  17; 6HR MAX TEMP:  25;

HOULTON        FAIR      24  10  55 SE9       30.26F
6HR MIN TEMP:   6; 6HR MAX TEMP:  24;

PRESQUE ISLE   FAIR      21  10  62 SE14      30.25F WCI   8
6HR MIN TEMP:   5; 6HR MAX TEMP:  21;

FRENCHVILLE    FAIR      17   6  62 SE15      30.18F WCI   2
6HR MIN TEMP:   5; 6HR MAX TEMP:  17;

CARIBOU        FAIR      21   9  59 SE12G18   30.24F WCI   9
6HR MIN TEMP:   7; 6HR MAX TEMP:  21;

$$

NHZ002-005-008-009-011-012-014-251900-
NEW HAMPSHIRE

CITY           SKY/WX    TMP DP  RH WIND       PRES   REMARKS
PORTSMOUTH     LGT RAIN  37  36  96 E14G22    30.13F FOG
ROCHESTER      LGT SNOW  33  33 100 E7        30.14F VSB 1
6HR MIN TEMP:  30; 6HR MAX TEMP:  33; 6HR PCP:  0.26;

NASHUA         LGT RAIN  37  37 100 E9        30.10F
MANCHESTER     LGT RAIN  36  34  92 E7        30.08F FOG
6HR MIN TEMP:  31; 6HR MAX TEMP:  36; 6HR PCP:  0.25;

CONCORD        LGT RAIN  34  32  92 E9        30.10F FOG
6HR MIN TEMP:  30; 6HR MAX TEMP:  34; 6HR PCP:  0.31;

LACONIA        SNOW      31  28  89 NE9       30.13F VSB 1/2
PLYMOUTH       LGT SNOW  29  27  92 SE7       30.11F VSB 3/4
BERLIN         LGT SNOW  27  22  81 S10G23    30.05F WCI  17
6HR MIN TEMP:  25; 6HR MAX TEMP:  29; 6HR PCP:  0.16;

WHITEFIELD     CLOUDY    33  24  69 S15G35    29.99F
6HR MIN TEMP:  28; 6HR MAX TEMP:  33; 6HR PCP:  0.07;

JAFFREY        LGT RAIN  35  34  96 MISG      30.02F
6HR MIN TEMP:  30; 6HR MAX TEMP:  35; 6HR PCP:  0.30;

KEENE          LGT RAIN  37  33  85 VRB3      30.07F
LEBANON        CLOUDY    36  29  75 S10G23    30.05F
6HR MIN TEMP:  29; 6HR MAX TEMP:  36; 6HR PCP:  0.15;

MT WASHINGTON  SNOW      12  12 100 S45         N/A  VSB 0   WCI -13
6HR MIN TEMP:   6; 6HR MAX TEMP:  17; 6HR PCP:  0.32;

$$

VTZ005-007-008-251900-
VERMONT

CITY           SKY/WX    TMP DP  RH WIND       PRES   REMARKS
ST JOHNSBURY     N/A     33  28  81 MISG      29.99F
MONTPELIER     CLOUDY    30  28  92 S12       30.04R FOG
BURLINGTON     CLOUDY    35  30  82 S10       29.92F
$$

MAZ007-012-024-CTZ003-RIZ002-NYZ038-NYZ072-251900-
SOUTHERN NEW ENGLAND AND NY

CITY           SKY/WX    TMP DP  RH WIND       PRES   REMARKS
BOSTON         RAIN      39  38  96 E22G28    30.10F FOG
WORCESTER      LGT RAIN  35  34  96 E10       30.02F FOG
NANTUCKET      RAIN      42  42 100 E26G36    30.03F FOG
PROVIDENCE     RAIN      41  40  96 E13       30.05F FOG
HARTFORD       RAIN      39  38  96 NE9       29.99F FOG
ALBANY         CLOUDY    40  34  79 S10       29.97F
NEW YORK CITY  LGT RAIN  41  38  89 NE16      29.94F FOG
$$

ANZ081-ANZ082-ANZ150-NHZ014-MEZ023>029-251900-
COASTAL MARINE OBSERVATIONS

STATION/POSITION TIME  TEMP    WIND        PRES    WAVE
                       AIR SEA DIR/SP/G            HT/PER
                 (UTC) (F)     (DEG/KT/KT) (MB)    (FT/S)
MOUNT DESERT ROC 1800   36     110/ 28/ 31 1023.9F
MATINICUS ROCK   1800   34     120/ 25/ 27 1022.2F
ISLE OF SHOALS   1800   38     110/ 25/ 28 1019.6F
JEFFREYS LEDGE   1736      42                N/A     6/ 6
GEORGES BANK BUO 1750   36 56              1024.2R  14/ 9
$$

.............KEY..............
   WCI - WIND CHILL
   TC  - TEMPERATURE IN CELSIUS
   VSB - VISIBILITY IN MILES
   HX  - HEAT INDEX
   FAIR- INDICATES FEW OR NO CLOUDS BELOW 12,000 FT, WITH NO
         SIGNIFICANT WEATHER AND/OR OBSTRUCTIONS TO VISIBILITY.





USA.gov is the U.S. government's official web portal to all federal, state and local government web resources and services.